Regional Weather Roundup
Issued by NWS

Home | Current Version | Previous Version | Graphics & Text | Print | Product List | Glossary Off
Versions: 1 2 3 4 5 6 7 8 9 10 11 12 13 14 15 16 17 18 19 20 21 22 23 24 25 26 27 28 29 30 31 32 33 34 35 36 37 38 39 40 41 42 43 44 45 46 47 48 49 50

000
ASUS43 KFSD 010010
RWRSD

WEATHER ROUNDUP FOR SOUTH DAKOTA
NATIONAL WEATHER SERVICE SIOUX FALLS SD
700 PM CDT SUN APR 30 2017

NOTE: "FAIR" INDICATES FEW OR NO CLOUDS BELOW 12,000 FEET WITH NO
SIGNIFICANT WEATHER AND/OR OBSTRUCTIONS TO VISIBILITY.


SDZ001>005-009-010-012>017-010100-
NORTHWEST AND NORTH CENTRAL SOUTH DAKOTA

CITY           SKY/WX    TMP DP  RH WIND       PRES   REMARKS
BUFFALO          N/A     62  19  19 VRB3      29.80F
FAITH            N/A     60  22  23 NE12      29.84F
MOBRIDGE       PTSUNNY   61  17  18 NE12      29.82S
$$

SDZ012>016-024>037-041>051-057-063-072>074-010100-
SOUTHWEST AND SOUTH CENTRAL SOUTH DAKOTA

CITY           SKY/WX    TMP DP  RH WIND       PRES   REMARKS
RAPID CTY ARPT SUNNY     58  21  24 N16       29.85F
PIERRE         PTSUNNY   56  19  23 NE17      29.81S
CUSTER         SUNNY     50  19  29 NE9G18    29.87R
ELLSWORTH AFB  SUNNY     59  21  23 N14       29.85F
PHILIP         CLOUDY    58  22  24 N12       29.83S
PINE RIDGE     CLOUDY    56  22  26 N13G22    29.83S
SPEARFISH      FAIR      55  19  24 VRB5G12   29.88F
WINNER         FAIR      50  23  34 NE13      29.80R
$$

SDZ004>011-016>023-039-040-010100-
NORTHEAST SOUTH DAKOTA

CITY           SKY/WX    TMP DP  RH WIND       PRES   REMARKS
ABERDEEN       CLOUDY    55  19  24 NE18      29.83F
WATERTOWN      CLOUDY    42  34  73 NE22G29   29.80R
BROOKINGS      RAIN      39  37  92 NE14G23   29.75S FOG
SISSETON         N/A     53  27  36 E15G23    29.83S
$$

SDZ017-020-022-023-036>040-048>070-010100-
SOUTHEAST SOUTH DAKOTA

CITY           SKY/WX    TMP DP  RH WIND       PRES   REMARKS
SIOUX FALLS    RAIN      39  39 100 NE12G21   29.73R FOG
HURON          CLOUDY    50  30  46 NE17      29.80S
CHAMBERLAIN    CLOUDY    52  22  31 N9G16     29.80S
MITCHELL       LGT RAIN  41  39  93 N10       29.80R
YANKTON        CLOUDY    37  34  87 N12G22    29.75S
$$

ABBREVIATIONS USED IN REMARKS
   TC - TEMPERATURE IN CELSIUS
  WCI - WIND CHILL INDEX
   HX - HEAT INDEX
  VSB - VISIBILITY





USA.gov is the U.S. government's official web portal to all federal, state and local government web resources and services.